SONATE (44400 NORAD) Tracking and Keplerian Element Data

This shows tracking and keplerian element data for the satellite.

Feedback or suggestion? Click here.




ElementValue
Catalog44400
NameSONATE
Epoch Orbit30978
Epoch Day34.60726933
Epoch Year2025
RAAN48.5521
Inclination97.7106
Eccentricity0.0009792
Argument of Perigee10.4584
Mean Anonmoly349.6872
Mean Motion15.57195873
Decay Rate0.00062849
L11 44400U 19038Q 25034.60726933 .00062849 00000+0 85895-3 0 9999
L22 44400 97.7106 48.5521 0009792 10.4584 349.6872 15.57195873309785



Live tracking and technical data element details for SONATE (NORAD 44400). SONATE can be tracked NOW for your location showing map with azimuth and elevation plus other details from your city location.







IsCatalogInMostPopularTable: catalog: 44400, numindb: 364
Update: records affected: 1



GetName: 44400 SONATE

Hit Count: updated at: Thu, 16 Apr 2026 05:09:08 GMT